User: anonymous   Login
Location: Beuvrequen
(50.8014°N, 1.6652°E)
Time: 07:40:39
(UTC+00:00)
Language:

Cosmos 1125 Rocket - Orbit

View from above orbital plane
View from above orbital plane
View from above satellite
View from above satellite

Ground track
Ground track

The orbit data is extracted from the following two-line orbital elements,

1 11511U 79078B   22023.65788765  .00000083  00000-0  36928-4 0  9994
2 11511  74.0363 104.2750 0016843 295.4819  64.4592 14.36958329219836
Epoch (UTC): 23 January 2022 15:47:21
Eccentricity: 0.0016843
inclination: 74.0363°
perigee height: 756 km
apogee height: 780 km
right ascension of ascending node: 104.2750°
argument of perigee: 295.4819°
revolutions per day: 14.36958329
mean anomaly at epoch: 64.4592°
orbit number at epoch: 21983

The dashed part of the orbit path shows where the satellite is in the earth's shadow,  

DLR